QPF
0.00 0.00 0.00 0.01 0.00 0.00 0.00 0.00 0.00 0.00 0.00 0.00 0.00 0.00 0.00 0.00 0.00 0.00 0.00 0.00 0.00 0.00 0.01 0.01 0.01 0.00 0.00 0.00 0.00 0.00 0.00 0.00 0.00 0.00 0.00 0.00 0.00 0.00 0.00 0.00 0.00 0.00 0.00 0.00 0.00 0.00 0.00 0.00 0.00
0.00 0.00 0.00 0.00 0.00 0.00 0.00 0.00 0.00 0.00 0.00 0.00 0.00 0.00 0.00 0.00 0.00 0.00 0.00 0.00 0.00 0.00 0.00 0.00 0.00 0.00 0.00 0.00 0.00 0.00 0.00 0.00 0.00 0.00 0.00 0.00 0.00 0.00 0.00 0.00 0.00 0.00 0.00 0.00 0.00 0.00 0.00 0.00 0.00
0.00 0.00 0.00 0.00 0.00 0.00 0.00 0.00 0.00 0.01 0.00 0.00 0.00 0.00 0.00 0.00 0.00 0.00 0.00 0.00 0.00 0.00 0.00 0.00 0.00 0.00 0.00 0.00 0.00 0.00 0.00 0.00 0.00 0.00 0.00 0.00 0.00 0.00 0.00 0.00 0.00 0.00 0.00 0.00 0.00 0.00 0.00 0.02 0.05
0.00 0.00 0.00 0.00 0.00 0.00 0.00 0.00 0.00 0.00 0.00 0.00 0.00 0.00 0.00 0.00 0.00 0.00 0.00 0.00 0.00 0.00 0.00 0.00 0.00 0.00 0.00 0.00 0.00 0.00 0.00 0.00 0.00 0.00 0.00 0.00 0.00 0.00 0.00 0.00 0.00 0.00 0.00 0.00 0.00 0.00 0.03 0.15 0.13
0.00 0.00 0.00 0.00 0.00 0.00 0.00 0.00 0.00 0.00 0.00 0.00 0.00 0.00 0.00 0.00 0.00 0.00 0.00 0.00 0.00 0.00 0.00 0.00 0.00 0.00 0.00 0.00 0.00 0.00 0.00 0.00 0.00 0.00 0.00 0.00 0.00 0.00 0.00 0.00 0.00 0.00 0.00 0.00 0.00 0.01 0.08 0.14 0.14
0.00 0.00 0.00 0.00 0.00 0.00 0.00 0.00 0.00 0.00 0.00 0.00 0.00 0.00 0.00 0.00 0.00 0.00 0.00 0.00 0.00 0.00 0.00 0.00 0.00 0.00 0.00 0.00 0.00 0.00 0.00 0.00 0.00 0.00 0.00 0.00 0.00 0.00 0.00 0.00 0.00 0.00 0.00 0.00 0.00 0.01 0.04 0.10 0.10
0.00 0.00 0.00 0.00 0.00 0.00 0.00 0.00 0.00 0.00 0.00 0.00 0.00 0.00 0.00 0.00 0.00 0.00 0.00 0.00 0.00 0.00 0.00 0.00 0.00 0.00 0.00 0.00 0.00 0.00 0.00 0.00 0.00 0.00 0.00 0.00 0.00 0.00 0.00 0.00 0.00 0.00 0.00 0.00 0.00 0.00 0.01 0.10 0.15
0.00 0.00 0.00 0.00 0.00 0.00 0.00 0.00 0.00 0.00 0.00 0.00 0.00 0.00 0.00 0.00 0.00 0.00 0.00 0.00 0.00 0.00 0.00 0.00 0.00 0.00 0.00 0.00 0.00 0.00 0.00 0.00 0.00 0.00 0.00 0.00 0.00 0.00 0.00 0.00 0.00 0.00 0.00 0.00 0.00 0.00 0.00 0.05 0.11
0.00 0.00 0.00 0.00 0.00 0.00 0.00 0.00 0.00 0.00 0.00 0.00 0.00 0.00 0.00 0.00 0.00 0.00 0.00 0.00 0.00 0.00 0.00 0.00 0.00 0.00 0.00 0.00 0.00 0.00 0.00 0.00 0.00 0.01 0.01 0.03 0.01 0.00 0.00 0.00 0.00 0.00 0.00 0.00 0.00 0.00 0.01 0.02 0.04
0.00 0.00 0.00 0.00 0.00 0.00 0.00 0.00 0.00 0.00 0.00 0.00 0.00 0.00 0.00 0.00 0.00 0.00 0.00 0.00 0.00 0.00 0.00 0.00 0.00 0.00 0.00 0.00 0.00 0.00 0.00 0.00 0.00 0.00 0.01 0.00 0.00 0.00 0.00 0.00 0.03 0.06 0.06 0.18 0.07 0.00 0.02 0.03 0.01
0.01 0.02 0.01 0.01 0.01 0.00 0.00 0.00 0.00 0.00 0.00 0.00 0.00 0.00 0.00 0.00 0.00 0.00 0.00 0.00 0.00 0.00 0.00 0.00 0.00 0.00 0.00 0.00 0.00 0.00 0.00 0.00 0.00 0.00 0.00 0.01 0.05 0.02 0.00 0.03 0.09 0.18 0.14 0.13 0.06 0.12 0.16 0.03 0.00
0.00 0.00 0.00 0.00 0.00 0.00 0.00 0.00 0.00 0.00 0.00 0.00 0.00 0.00 0.00 0.00 0.00 0.00 0.00 0.00 0.00 0.00 0.00 0.00 0.00 0.00 0.00 0.00 0.00 0.00 0.00 0.00 0.00 0.00 0.00 0.01 0.03 0.04 0.00 0.01 0.02 0.07 0.10 0.09 0.03 0.01 0.03 0.09 0.03
0.00 0.00 0.00 0.00 0.00 0.00 0.00 0.00 0.00 0.00 0.00 0.00 0.00 0.00 0.00 0.00 0.00 0.00 0.00 0.00 0.00 0.00 0.00 0.00 0.00 0.00 0.00 0.00 0.00 0.00 0.00 0.00 0.01 0.02 0.05 0.02 0.01 0.01 0.02 0.01 0.00 0.04 0.04 0.02 0.00 0.00 0.01 0.06 0.08
0.00 0.00 0.00 0.00 0.00 0.00 0.00 0.00 0.00 0.00 0.00 0.00 0.00 0.00 0.00 0.00 0.00 0.00 0.00 0.00 0.00 0.00 0.00 0.00 0.00 0.00 0.00 0.00 0.00 0.00 0.00 0.01 0.04 0.05 0.04 0.04 0.04 0.04 0.02 0.00 0.00 0.00 0.01 0.01 0.00 0.01 0.05 0.00 0.01
0.00 0.00 0.00 0.00 0.00 0.00 0.00 0.00 0.00 0.00 0.00 0.00 0.00 0.00 0.00 0.00 0.00 0.00 0.00 0.00 0.00 0.00 0.00 0.00 0.00 0.00 0.00 0.00 0.00 0.00 0.00 0.00 0.04 0.04 0.05 0.10 0.11 0.07 0.05 0.01 0.01 0.00 0.01 0.00 0.00 0.01 0.02 0.01 0.00
0.00 0.00 0.00 0.00 0.00 0.00 0.00 0.00 0.00 0.00 0.00 0.00 0.00 0.00 0.00 0.00 0.00 0.00 0.00 0.00 0.00 0.00 0.00 0.00 0.00 0.00 0.00 0.00 0.00 0.00 0.00 0.00 0.00 0.00 0.03 0.12 0.08 0.04 0.02 0.01 0.04 0.00 0.01 0.00 0.00 0.00 0.00 0.00 0.00
0.00 0.00 0.00 0.00 0.00 0.00 0.00 0.00 0.00 0.00 0.00 0.00 0.00 0.00 0.00 0.00 0.00 0.00 0.00 0.00 0.00 0.00 0.00 0.00 0.00 0.00 0.00 0.00 0.00 0.00 0.00 0.00 0.00 0.01 0.00 0.05 0.04 0.03 0.02 0.01 0.01 0.00 0.00 0.00 0.00 0.00 0.00 0.00 0.03
0.00 0.00 0.00 0.00 0.00 0.00 0.00 0.00 0.00 0.00 0.00 0.00 0.00 0.00 0.00 0.00 0.00 0.00 0.00 0.00 0.00 0.00 0.00 0.00 0.00 0.00 0.00 0.00 0.00 0.00 0.00 0.00 0.00 0.00 0.00 0.01 0.00 0.03 0.06 0.01 0.00 0.00 0.00 0.00 0.00 0.00 0.00 0.00 0.05
0.00 0.00 0.00 0.00 0.00 0.00 0.00 0.00 0.00 0.00 0.00 0.00 0.00 0.00 0.00 0.00 0.00 0.00 0.00 0.00 0.00 0.00 0.00 0.00 0.00 0.00 0.00 0.00 0.00 0.00 0.00 0.00 0.00 0.00 0.00 0.00 0.02 0.01 0.02 0.02 0.01 0.00 0.00 0.00 0.00 0.00 0.00 0.00 0.00
0.00 0.00 0.00 0.00 0.00 0.00 0.00 0.00 0.00 0.00 0.00 0.00 0.00 0.00 0.00 0.00 0.00 0.00 0.00 0.00 0.00 0.00 0.00 0.00 0.00 0.00 0.00 0.00 0.00 0.00 0.00 0.00 0.00 0.00 0.00 0.00 0.04 0.00 0.00 0.01 0.00 0.00 0.00 0.00 0.00 0.00 0.00 0.00 0.00
0.00 0.00 0.00 0.00 0.00 0.00 0.00 0.00 0.00 0.00 0.00 0.00 0.00 0.00 0.00 0.00 0.00 0.00 0.00 0.00 0.00 0.00 0.00 0.00 0.00 0.00 0.00 0.00 0.00 0.00 0.00 0.00 0.00 0.00 0.04 0.08 0.01 0.00 0.02 0.01 0.00 0.00 0.00 0.00 0.00 0.00 0.00 0.00 0.00
0.00 0.00 0.00 0.00 0.00 0.00 0.00 0.00 0.00 0.00 0.00 0.00 0.00 0.00 0.00 0.00 0.00 0.00 0.00 0.00 0.00 0.00 0.00 0.00 0.00 0.00 0.00 0.00 0.00 0.00 0.00 0.00 0.00 0.00 0.00 0.02 0.06 0.03 0.03 0.04 0.00 0.00 0.00 0.00 0.00 0.00 0.00 0.00 0.00
0.00 0.00 0.00 0.00 0.00 0.00 0.00 0.00 0.00 0.00 0.00 0.00 0.00 0.00 0.00 0.00 0.00 0.01 0.02 0.00 0.02 0.03 0.00 0.00 0.00 0.00 0.00 0.00 0.00 0.00 0.00 0.00 0.01 0.01 0.00 0.01 0.08 0.12 0.13 0.10 0.01 0.00 0.00 0.00 0.00 0.00 0.00 0.00 0.00
0.00 0.00 0.00 0.00 0.00 0.00 0.00 0.00 0.00 0.00 0.00 0.00 0.00 0.00 0.00 0.00 0.00 0.00 0.02 0.02 0.02 0.08 0.03 0.01 0.00 0.00 0.00 0.00 0.00 0.00 0.00 0.00 0.00 0.02 0.00 0.00 0.03 0.07 0.05 0.02 0.02 0.00 0.00 0.00 0.00 0.00 0.00 0.00 0.00
0.00 0.00 0.00 0.00 0.00 0.00 0.00 0.00 0.00 0.00 0.00 0.00 0.00 0.00 0.00 0.00 0.00 0.00 0.00 0.00 0.01 0.01 0.03 0.04 0.03 0.00 0.00 0.00 0.00 0.00 0.00 0.00 0.00 0.00 0.00 0.00 0.00 0.00 0.00 0.00 0.01 0.00 0.00 0.00 0.00 0.00 0.00 0.00 0.00
0.00 0.00 0.00 0.00 0.00 0.00 0.00 0.00 0.00 0.00 0.00 0.00 0.00 0.00 0.00 0.00 0.00 0.00 0.00 0.00 0.00 0.01 0.02 0.02 0.04 0.02 0.00 0.00 0.00 0.00 0.00 0.00 0.00 0.00 0.00 0.00 0.00 0.00 0.00 0.00 0.00 0.00 0.00 0.00 0.00 0.00 0.00 0.00 0.00
0.00 0.00 0.00 0.00 0.00 0.00 0.00 0.00 0.00 0.00 0.00 0.00 0.00 0.00 0.00 0.00 0.00 0.00 0.00 0.00 0.00 0.00 0.00 0.01 0.05 0.04 0.01 0.00 0.00 0.00 0.00 0.00 0.00 0.00 0.00 0.00 0.00 0.00 0.00 0.00 0.00 0.00 0.00 0.00 0.00 0.00 0.00 0.00 0.00
0.00 0.00 0.00 0.00 0.00 0.00 0.00 0.00 0.00 0.00 0.00 0.00 0.00 0.00 0.00 0.00 0.00 0.00 0.00 0.00 0.00 0.00 0.00 0.02 0.05 0.06 0.02 0.00 0.00 0.00 0.00 0.00 0.00 0.00 0.00 0.00 0.00 0.00 0.00 0.00 0.00 0.01 0.01 0.00 0.00 0.00 0.00 0.00 0.00
0.00 0.00 0.00 0.00 0.00 0.00 0.00 0.00 0.00 0.00 0.00 0.00 0.00 0.00 0.00 0.00 0.00 0.00 0.00 0.00 0.00 0.00 0.00 0.03 0.07 0.10 0.10 0.02 0.00 0.00 0.00 0.00 0.00 0.00 0.00 0.00 0.00 0.00 0.01 0.00 0.00 0.00 0.00 0.00 0.00 0.00 0.00 0.00 0.00
0.00 0.00 0.00 0.00 0.00 0.00 0.00 0.00 0.00 0.00 0.02 0.02 0.02 0.00 0.00 0.00 0.00 0.00 0.00 0.00 0.00 0.00 0.00 0.01 0.08 0.11 0.14 0.06 0.01 0.00 0.00 0.00 0.00 0.00 0.00 0.00 0.00 0.00 0.00 0.02 0.00 0.00 0.01 0.01 0.00 0.00 0.00 0.00 0.00
MSLP
1007.00 1007.54 1008.13 1008.60 1009.11 1008.74 1008.69 1008.25 1007.74 1007.96 1008.21 1008.16 1008.79 1009.33 1010.39 1010.92 1011.23 1013.07 1013.37 1014.03 1014.37 1014.67 1014.52 1014.46 1014.48 1014.69 1014.67 1014.92 1015.11 1015.04 1015.37 1015.55 1015.57 1015.82 1016.01 1016.19 1016.18 1016.32 1016.49 1016.89 1017.20 1017.18 1017.27 1017.37 1017.46 1017.54 1017.50 1017.68 1017.75
1007.09 1007.62 1008.01 1008.07 1008.82 1009.12 1008.79 1008.08 1008.01 1007.78 1007.89 1008.31 1009.06 1009.77 1010.67 1011.50 1011.71 1012.73 1013.64 1014.09 1014.33 1014.69 1014.71 1014.95 1015.00 1014.87 1015.05 1015.18 1015.42 1015.50 1015.69 1015.71 1015.85 1016.17 1016.25 1016.40 1016.56 1016.66 1016.59 1016.87 1017.09 1017.22 1017.25 1017.40 1017.58 1017.70 1017.66 1017.74 1017.83
1007.24 1006.53 1007.23 1007.91 1008.67 1008.66 1008.51 1008.21 1007.72 1007.92 1007.89 1008.46 1009.57 1010.19 1011.23 1012.05 1012.52 1012.85 1013.23 1013.90 1014.36 1014.83 1015.03 1015.19 1015.28 1015.33 1015.37 1015.44 1015.64 1015.99 1015.94 1015.97 1016.03 1016.53 1016.65 1016.55 1016.69 1016.90 1016.80 1016.81 1017.11 1017.26 1017.42 1017.49 1017.68 1017.83 1017.85 1017.70 1017.91
1006.94 1006.78 1007.16 1007.63 1008.18 1007.81 1007.62 1007.95 1007.64 1007.86 1008.28 1008.82 1009.84 1010.97 1011.76 1012.05 1012.63 1012.88 1013.53 1013.91 1014.58 1014.97 1015.16 1015.25 1015.40 1015.56 1015.61 1015.81 1015.89 1016.11 1016.35 1016.30 1016.37 1016.67 1016.80 1016.90 1016.95 1017.07 1017.16 1016.97 1017.23 1017.39 1017.51 1017.67 1017.70 1017.80 1017.73 1017.78 1018.02
1007.01 1006.96 1007.77 1008.05 1007.95 1007.74 1007.51 1007.57 1007.72 1007.95 1008.66 1009.27 1009.76 1011.37 1012.33 1012.92 1012.89 1013.41 1013.95 1014.27 1014.67 1015.22 1015.29 1015.35 1015.53 1015.65 1015.86 1015.96 1016.13 1016.36 1016.56 1016.64 1016.94 1016.92 1016.82 1017.04 1017.25 1017.25 1017.23 1017.27 1017.27 1017.53 1017.53 1017.74 1017.82 1017.75 1017.73 1018.12 1018.19
1007.34 1008.23 1008.77 1008.56 1008.07 1007.76 1007.57 1007.52 1007.67 1008.12 1009.03 1009.76 1010.50 1011.24 1012.81 1013.13 1013.35 1013.87 1014.20 1014.57 1014.77 1015.17 1015.29 1015.45 1015.63 1015.78 1015.89 1016.11 1016.21 1016.57 1016.65 1016.95 1017.05 1017.05 1017.01 1017.03 1017.35 1017.36 1017.35 1017.42 1017.44 1017.56 1017.63 1017.75 1017.91 1018.04 1018.03 1018.27 1018.41
1007.78 1008.90 1009.21 1008.69 1008.25 1007.82 1007.62 1007.61 1007.67 1008.27 1009.05 1009.87 1010.29 1011.66 1013.16 1013.47 1013.72 1013.89 1014.33 1014.84 1015.03 1015.29 1015.35 1015.44 1015.69 1015.79 1016.05 1016.10 1016.40 1016.66 1016.79 1017.00 1017.10 1017.16 1017.05 1017.16 1017.44 1017.36 1017.47 1017.65 1017.67 1017.71 1017.83 1017.84 1017.97 1018.26 1018.33 1018.48 1018.70
1007.76 1008.73 1009.35 1008.97 1008.48 1007.82 1007.59 1007.77 1007.94 1008.05 1008.98 1009.51 1010.15 1011.81 1012.98 1013.29 1013.75 1014.33 1014.78 1015.26 1015.59 1015.65 1015.58 1015.59 1015.83 1015.89 1016.37 1016.36 1016.40 1016.73 1016.83 1016.99 1016.98 1017.18 1017.21 1017.22 1017.44 1017.44 1017.54 1017.70 1017.86 1017.81 1017.87 1017.95 1018.05 1018.20 1018.43 1018.61 1018.78
1007.22 1008.78 1009.12 1008.66 1008.15 1007.83 1007.60 1007.75 1008.44 1008.33 1008.91 1009.43 1009.90 1010.85 1011.77 1013.08 1013.94 1014.65 1015.23 1015.72 1015.94 1015.99 1016.03 1015.95 1016.05 1016.26 1016.37 1016.43 1016.71 1016.89 1016.89 1017.04 1017.15 1017.04 1017.29 1017.27 1017.55 1017.53 1017.67 1017.70 1017.85 1017.80 1017.87 1017.89 1017.98 1018.11 1018.38 1018.58 1018.71
1007.16 1008.64 1008.34 1007.66 1007.47 1007.35 1007.39 1007.64 1008.08 1008.83 1009.46 1009.75 1010.50 1011.09 1012.22 1013.21 1014.07 1014.61 1015.11 1015.52 1015.88 1015.99 1016.11 1016.29 1016.37 1016.36 1016.53 1016.60 1016.78 1016.96 1017.06 1017.19 1017.31 1017.19 1017.31 1017.45 1017.62 1017.56 1017.63 1017.77 1017.68 1017.60 1017.61 1017.67 1017.81 1017.97 1018.19 1018.46 1018.71
1007.27 1007.96 1007.47 1007.31 1007.33 1007.09 1007.48 1007.54 1007.91 1008.81 1009.57 1009.61 1010.39 1011.58 1012.47 1013.25 1014.21 1014.64 1014.99 1015.02 1015.11 1015.60 1016.11 1016.34 1016.38 1016.61 1016.72 1016.53 1016.74 1017.02 1017.25 1017.35 1017.46 1017.42 1017.52 1017.49 1017.53 1017.59 1017.50 1017.65 1017.69 1017.67 1017.59 1017.79 1017.74 1018.02 1018.23 1018.50 1018.69
1007.77 1007.74 1007.77 1007.43 1007.66 1007.29 1007.45 1007.29 1007.77 1008.14 1008.45 1009.02 1009.94 1011.00 1012.30 1013.29 1013.90 1014.39 1014.75 1014.97 1015.34 1015.60 1015.95 1016.31 1016.38 1016.58 1016.65 1016.72 1016.79 1016.90 1017.19 1017.29 1017.38 1017.49 1017.42 1017.59 1017.66 1017.75 1017.52 1017.44 1017.53 1017.53 1017.61 1017.80 1018.01 1017.95 1018.07 1018.45 1018.48
1007.83 1008.07 1008.06 1007.67 1007.55 1007.55 1007.19 1007.21 1007.53 1008.05 1008.37 1009.32 1010.29 1011.45 1012.34 1012.95 1013.59 1014.10 1014.46 1014.87 1015.19 1015.46 1015.75 1015.98 1016.11 1016.49 1016.42 1016.57 1016.74 1016.76 1017.03 1017.05 1017.16 1017.44 1017.47 1017.59 1017.56 1017.59 1017.42 1017.44 1017.48 1017.47 1017.53 1017.64 1017.91 1018.00 1017.89 1018.12 1018.25
1007.65 1007.96 1008.18 1008.08 1007.91 1007.85 1007.58 1007.23 1007.30 1008.41 1008.68 1009.71 1010.71 1011.45 1012.22 1012.77 1013.21 1013.93 1014.43 1014.66 1014.85 1015.14 1015.35 1015.55 1015.79 1015.99 1016.17 1016.48 1016.61 1016.63 1016.74 1016.72 1017.07 1017.33 1017.34 1017.45 1017.39 1017.32 1017.19 1017.18 1017.25 1017.39 1017.40 1017.58 1017.60 1017.83 1017.62 1017.75 1017.78
1008.07 1008.69 1008.69 1008.17 1008.31 1008.05 1007.73 1007.96 1008.31 1008.65 1009.03 1009.72 1010.65 1011.57 1011.97 1012.33 1012.91 1013.22 1013.48 1013.89 1014.21 1014.53 1014.94 1015.10 1015.36 1015.73 1016.16 1016.36 1016.34 1016.46 1016.44 1016.61 1016.82 1016.92 1016.91 1017.09 1017.33 1017.26 1017.11 1017.17 1017.07 1017.00 1017.05 1017.17 1017.31 1017.44 1017.55 1017.57 1017.44
1008.14 1008.64 1008.86 1008.31 1008.33 1008.18 1007.86 1008.65 1008.90 1009.05 1009.27 1009.81 1010.16 1010.75 1011.45 1011.96 1012.18 1012.53 1012.85 1013.31 1013.72 1014.18 1014.57 1014.92 1015.08 1015.52 1015.97 1016.13 1016.08 1016.20 1016.25 1016.28 1016.53 1016.73 1016.71 1016.59 1016.75 1016.95 1017.04 1017.10 1017.03 1016.84 1016.65 1016.85 1017.07 1017.48 1017.61 1017.62 1017.61
1008.73 1008.76 1008.70 1008.29 1007.97 1008.03 1008.34 1008.92 1008.81 1008.95 1009.35 1009.96 1010.02 1010.20 1010.63 1010.98 1011.76 1011.91 1012.09 1012.57 1013.03 1013.48 1014.09 1014.60 1014.83 1015.17 1015.63 1015.75 1016.09 1015.98 1015.89 1016.04 1016.01 1016.26 1016.33 1016.28 1016.37 1016.66 1016.72 1016.90 1016.93 1016.79 1016.75 1016.84 1017.17 1017.48 1017.58 1017.77 1017.77
1008.58 1008.51 1008.10 1008.10 1007.88 1008.13 1008.44 1008.39 1008.49 1008.86 1009.41 1009.73 1009.90 1009.99 1010.15 1010.41 1010.56 1011.03 1011.53 1012.05 1012.66 1013.19 1013.62 1014.05 1014.53 1014.89 1015.30 1015.72 1015.88 1015.98 1015.93 1015.79 1015.85 1015.93 1016.01 1015.85 1016.14 1016.50 1016.87 1016.81 1016.85 1016.79 1017.08 1017.31 1017.47 1017.59 1017.79 1017.95 1018.07
1007.81 1007.96 1007.77 1007.67 1007.41 1007.73 1008.23 1008.41 1008.53 1008.49 1008.98 1009.37 1009.57 1009.78 1009.85 1009.92 1009.83 1010.43 1011.00 1011.60 1012.43 1013.05 1013.37 1013.80 1014.21 1014.54 1015.17 1015.56 1015.88 1016.15 1016.37 1016.03 1016.09 1016.05 1015.92 1016.13 1016.51 1016.56 1016.59 1016.71 1016.85 1016.99 1017.33 1017.58 1017.84 1017.97 1018.03 1018.23 1018.47
1007.33 1007.73 1007.36 1007.12 1007.06 1007.36 1007.83 1007.90 1007.81 1007.89 1007.75 1008.29 1008.76 1009.28 1009.33 1009.56 1010.01 1010.35 1010.77 1011.27 1011.79 1012.41 1013.02 1013.59 1013.84 1014.25 1014.60 1014.87 1015.11 1015.44 1015.87 1016.13 1016.09 1016.05 1016.23 1016.34 1016.29 1016.53 1016.58 1016.61 1016.93 1017.12 1017.47 1017.70 1017.92 1018.11 1018.30 1018.51 1018.65
1007.51 1007.66 1007.44 1007.42 1007.35 1007.39 1007.65 1007.89 1007.87 1007.76 1007.75 1007.85 1008.04 1008.42 1008.80 1009.16 1009.61 1010.07 1010.53 1010.95 1011.57 1012.21 1012.65 1013.03 1013.37 1013.77 1014.21 1014.51 1015.01 1015.48 1015.79 1016.13 1016.33 1016.52 1016.56 1016.54 1016.27 1016.49 1016.63 1016.79 1017.05 1017.34 1017.56 1017.77 1018.08 1018.12 1018.23 1018.63 1018.79
1007.32 1006.97 1007.14 1007.30 1008.21 1008.34 1008.15 1009.36 1008.08 1007.50 1007.43 1007.35 1007.21 1007.59 1008.06 1008.71 1009.00 1009.53 1010.13 1010.77 1011.21 1011.46 1012.06 1012.50 1013.04 1013.44 1013.81 1014.37 1014.77 1015.16 1015.48 1015.96 1016.13 1016.17 1016.16 1016.39 1016.41 1016.55 1016.69 1016.90 1017.11 1017.41 1017.55 1017.85 1018.03 1018.07 1018.16 1018.51 1018.88
1006.14 1006.56 1007.01 1007.29 1009.21 1009.31 1009.51 1009.88 1007.81 1007.63 1007.21 1007.10 1006.62 1006.75 1007.11 1007.55 1008.20 1008.79 1009.44 1009.78 1010.31 1011.12 1011.63 1011.97 1012.60 1013.13 1013.53 1013.98 1014.39 1014.87 1015.32 1015.53 1015.96 1016.38 1016.47 1016.66 1016.64 1016.52 1016.76 1016.85 1017.02 1017.43 1017.67 1018.02 1018.03 1018.17 1018.42 1018.61 1018.97
1005.52 1006.76 1007.80 1008.88 1009.82 1010.81 1009.81 1009.93 1008.48 1007.51 1005.89 1005.47 1005.98 1005.75 1006.43 1006.90 1007.62 1008.04 1008.95 1009.42 1010.24 1011.13 1011.44 1011.97 1012.37 1012.71 1013.16 1013.73 1014.18 1014.51 1014.95 1015.50 1016.07 1016.61 1016.78 1016.78 1016.70 1016.66 1016.64 1016.67 1016.99 1017.20 1017.54 1017.97 1018.15 1018.29 1018.67 1018.84 1018.99
1006.13 1007.70 1009.59 1010.78 1011.19 1010.72 1009.91 1009.94 1007.66 1005.70 1005.01 1004.56 1004.64 1004.79 1005.60 1006.19 1006.96 1007.53 1008.48 1009.36 1009.83 1010.59 1010.89 1011.85 1012.54 1012.61 1012.90 1013.39 1013.91 1014.23 1014.59 1015.04 1015.67 1016.17 1016.44 1016.62 1016.68 1016.63 1016.65 1016.64 1017.05 1017.26 1017.31 1017.55 1017.85 1018.29 1018.63 1018.81 1019.03
1005.95 1007.15 1008.67 1010.33 1011.44 1010.67 1009.93 1008.74 1006.29 1005.18 1004.42 1004.10 1004.19 1004.37 1005.21 1005.65 1006.09 1006.70 1007.49 1008.55 1009.29 1010.30 1010.82 1011.05 1012.06 1012.65 1012.67 1013.06 1013.50 1013.90 1014.27 1014.63 1015.10 1015.49 1015.73 1015.88 1016.01 1016.08 1016.37 1016.57 1016.83 1016.97 1017.19 1017.43 1017.75 1018.28 1018.51 1018.60 1018.73
1005.70 1006.79 1007.51 1009.43 1011.01 1010.96 1009.65 1007.97 1006.39 1005.70 1005.18 1004.75 1004.59 1004.56 1005.08 1005.04 1005.42 1005.98 1006.75 1007.55 1008.45 1009.37 1009.86 1010.29 1011.17 1011.99 1012.41 1012.63 1013.19 1013.62 1013.99 1014.31 1014.57 1014.80 1015.07 1015.35 1015.62 1015.89 1016.15 1016.23 1016.69 1016.83 1017.15 1017.46 1017.76 1018.24 1018.74 1018.90 1018.99
1004.49 1005.75 1007.64 1009.08 1010.71 1011.08 1009.86 1008.94 1008.02 1007.09 1006.70 1005.98 1005.67 1005.47 1005.47 1005.38 1005.30 1005.67 1006.18 1006.77 1007.51 1008.19 1008.96 1010.16 1010.71 1011.04 1011.39 1012.13 1012.67 1013.17 1013.41 1013.72 1013.98 1014.39 1014.88 1015.18 1015.39 1015.75 1016.01 1016.26 1016.57 1016.98 1017.32 1017.58 1018.01 1018.37 1018.74 1019.02 1019.26
1004.89 1005.78 1007.54 1008.79 1009.92 1010.59 1010.27 1009.31 1008.45 1008.31 1008.01 1007.99 1006.67 1006.27 1005.34 1005.19 1005.63 1005.93 1006.26 1006.37 1007.05 1008.04 1008.86 1009.61 1010.27 1010.79 1011.32 1011.65 1012.07 1012.61 1012.94 1013.17 1013.55 1013.85 1014.16 1014.55 1015.01 1015.39 1015.71 1016.03 1016.47 1016.88 1017.17 1017.64 1018.03 1018.38 1018.88 1019.18 1019.35
1003.98 1005.04 1006.54 1008.80 1009.99 1010.28 1009.97 1008.97 1008.46 1008.37 1007.61 1007.35 1008.21 1007.52 1005.89 1005.35 1005.14 1005.87 1006.15 1006.45 1006.88 1007.62 1008.45 1009.27 1010.03 1010.44 1010.84 1011.21 1011.79 1011.87 1012.22 1012.62 1013.06 1013.27 1013.56 1013.92 1014.33 1014.77 1015.13 1015.51 1016.06 1016.58 1016.91 1017.33 1017.82 1018.24 1018.71 1019.07 1019.41
Thickness
5838 5830 5824 5811 5778 5777 5764 5771 5790 5778 5778 5794 5794 5785 5772 5774 5771 5743 5773 5770 5767 5767 5769 5768 5769 5769 5769 5768 5768 5771 5770 5771 5771 5768 5766 5766 5768 5767 5765 5759 5754 5754 5751 5748 5746 5745 5744 5740 5740
5838 5831 5821 5808 5765 5748 5757 5783 5773 5788 5792 5797 5791 5785 5774 5765 5782 5772 5771 5776 5773 5770 5770 5769 5769 5772 5767 5771 5770 5770 5769 5772 5772 5767 5766 5766 5766 5766 5767 5764 5759 5757 5755 5752 5747 5745 5744 5742 5741
5839 5842 5817 5793 5768 5755 5757 5781 5787 5794 5805 5797 5784 5790 5777 5768 5778 5777 5784 5782 5777 5774 5771 5768 5768 5768 5770 5772 5773 5769 5771 5772 5773 5766 5765 5766 5767 5766 5767 5768 5762 5760 5757 5755 5749 5747 5745 5747 5743
5836 5832 5823 5784 5781 5790 5788 5789 5800 5798 5802 5800 5790 5772 5783 5789 5783 5786 5786 5785 5779 5776 5774 5771 5770 5770 5772 5771 5772 5771 5771 5772 5772 5768 5766 5765 5767 5766 5766 5769 5764 5762 5760 5755 5752 5749 5747 5746 5744
5838 5826 5790 5785 5785 5795 5802 5803 5803 5794 5794 5795 5796 5771 5770 5783 5790 5788 5784 5785 5780 5777 5775 5774 5773 5773 5773 5772 5773 5771 5770 5771 5769 5767 5769 5767 5765 5768 5769 5769 5768 5763 5761 5756 5754 5751 5750 5746 5744
5819 5811 5778 5770 5787 5799 5804 5809 5807 5798 5794 5792 5786 5779 5772 5787 5787 5785 5786 5783 5781 5778 5777 5776 5775 5774 5776 5774 5775 5771 5772 5769 5769 5770 5771 5771 5767 5768 5768 5767 5769 5765 5762 5758 5754 5751 5750 5748 5745
5814 5795 5780 5787 5786 5793 5799 5814 5804 5799 5795 5790 5798 5771 5774 5781 5787 5788 5786 5782 5780 5778 5779 5779 5778 5777 5775 5777 5774 5773 5772 5771 5771 5770 5773 5772 5769 5769 5768 5766 5768 5766 5762 5760 5756 5751 5749 5747 5745
5829 5809 5781 5790 5790 5792 5809 5810 5813 5808 5796 5811 5806 5771 5765 5784 5791 5787 5785 5781 5779 5779 5780 5781 5779 5778 5774 5777 5777 5773 5774 5773 5773 5771 5773 5773 5770 5769 5769 5768 5767 5766 5763 5761 5757 5754 5750 5748 5746
5849 5797 5784 5795 5798 5803 5818 5807 5812 5821 5806 5808 5810 5799 5798 5794 5791 5784 5779 5777 5777 5778 5780 5781 5779 5778 5779 5778 5775 5773 5774 5773 5772 5776 5773 5773 5772 5770 5769 5770 5769 5768 5766 5763 5761 5757 5754 5750 5748
5832 5799 5803 5825 5822 5816 5820 5818 5813 5804 5799 5800 5796 5801 5798 5793 5787 5782 5778 5775 5776 5777 5780 5781 5779 5778 5777 5776 5777 5775 5775 5775 5774 5776 5775 5774 5771 5772 5772 5771 5770 5770 5769 5766 5764 5761 5758 5755 5752
5832 5811 5827 5828 5831 5834 5823 5822 5824 5803 5791 5804 5793 5788 5789 5790 5783 5781 5780 5783 5783 5783 5782 5781 5780 5778 5777 5779 5779 5777 5776 5776 5773 5775 5773 5774 5773 5772 5774 5772 5771 5771 5770 5768 5766 5763 5762 5758 5755
5815 5828 5827 5828 5831 5830 5824 5832 5820 5817 5815 5824 5814 5805 5794 5786 5784 5783 5783 5784 5783 5783 5782 5782 5780 5779 5779 5780 5780 5779 5778 5776 5775 5774 5774 5772 5773 5772 5775 5775 5773 5773 5772 5769 5766 5766 5764 5760 5757
5818 5818 5824 5833 5835 5833 5839 5832 5825 5821 5827 5826 5817 5807 5796 5792 5788 5788 5788 5786 5784 5782 5784 5783 5783 5781 5782 5782 5780 5780 5779 5778 5777 5774 5774 5773 5773 5775 5778 5776 5774 5774 5774 5772 5768 5766 5766 5763 5761
5829 5825 5822 5826 5830 5832 5830 5834 5834 5821 5828 5819 5810 5805 5801 5796 5794 5788 5784 5784 5784 5784 5785 5787 5785 5784 5784 5782 5781 5781 5781 5781 5778 5776 5775 5774 5776 5779 5780 5778 5777 5775 5775 5773 5771 5768 5768 5766 5765
5825 5806 5816 5827 5826 5826 5835 5819 5814 5826 5825 5815 5810 5805 5804 5803 5800 5793 5793 5791 5790 5787 5786 5786 5786 5783 5783 5782 5782 5782 5782 5781 5779 5779 5780 5780 5779 5780 5779 5778 5778 5779 5777 5775 5773 5770 5768 5767 5767
5818 5811 5792 5821 5825 5829 5831 5793 5816 5826 5822 5812 5811 5808 5806 5804 5806 5805 5802 5799 5796 5792 5788 5788 5790 5786 5784 5783 5783 5783 5783 5783 5783 5782 5782 5784 5783 5779 5779 5778 5778 5779 5780 5777 5774 5772 5769 5767 5767
5806 5788 5796 5812 5831 5828 5823 5803 5823 5829 5822 5810 5813 5814 5812 5811 5809 5812 5812 5807 5803 5799 5794 5791 5792 5790 5786 5785 5782 5783 5787 5787 5788 5786 5786 5786 5786 5782 5781 5780 5779 5779 5780 5777 5773 5772 5771 5767 5767
5792 5797 5805 5803 5823 5826 5814 5816 5826 5826 5820 5814 5813 5818 5817 5815 5817 5819 5817 5813 5807 5803 5800 5797 5796 5794 5789 5787 5787 5785 5788 5790 5791 5790 5789 5790 5789 5783 5780 5779 5778 5779 5777 5773 5771 5770 5769 5767 5765
5816 5811 5806 5817 5833 5823 5814 5814 5819 5827 5823 5817 5817 5816 5819 5821 5828 5824 5821 5816 5808 5803 5802 5799 5796 5795 5792 5791 5786 5782 5783 5790 5789 5788 5788 5788 5784 5781 5782 5781 5779 5777 5773 5770 5768 5766 5766 5764 5763
5821 5812 5809 5824 5836 5829 5821 5818 5829 5830 5834 5830 5825 5821 5824 5826 5821 5822 5820 5818 5812 5807 5805 5801 5802 5799 5797 5797 5795 5791 5788 5787 5787 5787 5787 5785 5784 5782 5780 5779 5777 5775 5769 5767 5765 5764 5762 5761 5760
5809 5802 5807 5810 5826 5832 5824 5811 5821 5832 5836 5836 5837 5835 5832 5828 5823 5821 5820 5821 5817 5810 5807 5806 5806 5804 5801 5800 5796 5792 5790 5786 5783 5782 5782 5782 5783 5781 5778 5775 5772 5768 5763 5763 5762 5763 5762 5756 5757
5792 5820 5824 5821 5804 5785 5822 5767 5806 5825 5828 5834 5842 5839 5835 5831 5831 5826 5824 5821 5819 5818 5816 5812 5810 5807 5805 5801 5797 5794 5788 5783 5784 5785 5785 5784 5782 5780 5777 5773 5769 5764 5760 5758 5760 5762 5762 5758 5753
5813 5828 5823 5826 5782 5794 5795 5773 5803 5817 5821 5826 5840 5844 5845 5842 5839 5832 5828 5830 5828 5824 5820 5818 5815 5810 5808 5804 5800 5795 5791 5791 5788 5784 5783 5782 5782 5780 5776 5774 5768 5763 5758 5756 5758 5759 5758 5757 5754
5839 5814 5803 5792 5780 5754 5785 5781 5790 5806 5831 5845 5845 5852 5849 5847 5844 5842 5833 5834 5829 5823 5822 5819 5817 5814 5812 5807 5801 5797 5794 5790 5784 5780 5779 5780 5782 5782 5779 5774 5768 5762 5757 5754 5755 5757 5756 5755 5755
5810 5787 5741 5748 5745 5749 5783 5773 5801 5837 5848 5856 5857 5859 5855 5855 5849 5844 5834 5828 5828 5824 5824 5819 5812 5813 5814 5809 5803 5800 5797 5794 5788 5784 5784 5783 5783 5783 5780 5775 5769 5763 5756 5753 5755 5755 5754 5755 5754
5803 5791 5751 5742 5729 5758 5781 5774 5811 5846 5863 5867 5867 5866 5858 5856 5856 5850 5843 5834 5830 5824 5823 5824 5815 5810 5814 5810 5805 5803 5800 5798 5794 5792 5791 5790 5789 5787 5782 5776 5771 5766 5758 5754 5755 5755 5756 5758 5757
5807 5791 5805 5759 5755 5755 5772 5800 5832 5841 5849 5853 5856 5861 5855 5859 5860 5855 5851 5844 5837 5831 5831 5830 5823 5816 5814 5813 5807 5804 5803 5801 5799 5798 5796 5794 5792 5789 5784 5779 5775 5770 5762 5757 5756 5755 5754 5754 5755
5820 5814 5778 5759 5749 5751 5764 5783 5786 5814 5829 5843 5844 5847 5849 5853 5859 5859 5856 5851 5846 5842 5840 5832 5827 5823 5821 5815 5810 5807 5807 5806 5804 5801 5796 5794 5793 5790 5787 5783 5779 5773 5766 5760 5757 5753 5752 5750 5749
5803 5790 5773 5771 5757 5742 5747 5770 5797 5802 5816 5814 5835 5841 5847 5850 5853 5854 5854 5855 5850 5844 5839 5833 5828 5824 5817 5816 5814 5811 5809 5809 5807 5805 5803 5800 5796 5793 5789 5785 5779 5774 5769 5763 5758 5755 5751 5748 5745
5821 5804 5789 5758 5767 5758 5760 5773 5810 5809 5825 5830 5816 5829 5849 5856 5857 5852 5852 5851 5849 5846 5839 5832 5829 5825 5820 5818 5816 5817 5815 5813 5809 5808 5806 5804 5799 5796 5792 5788 5781 5775 5771 5766 5760 5755 5751 5747 5744